Date,TemperatureHighF,TemperatureAvgF,TemperatureLowF,DewpointHighF,DewpointAvgF,DewpointLowF,HumidityHigh,HumidityAvg,HumidityLow,PressureMaxIn,PressureMinIn,WindSpeedMaxMPH,WindSpeedAvgMPH,GustSpeedMaxMPH,PrecipitationSumIn
2013-1-1,31,24,10,29,16,3,92,74,56,29.72,29.50,31,11,33,0.00
2013-1-2,14,8,2,4,0,-4,82,69,56,29.91,29.71,31,12,34,0.00
2013-1-3,18,8,0,6,1,-4,80,71,57,30.00,29.88,19,5,19,0.00
2013-1-4,33,24,11,27,18,3,89,78,69,29.88,29.65,24,6,25,0.00
2013-1-5,33,26,14,28,15,4,81,64,45,30.24,29.63,28,8,30,0.00
2013-1-6,31,22,14,30,19,6,97,89,67,30.22,29.85,11,2,12,0.00
2013-1-7,20,15,11,18,8,0,93,74,53,30.38,29.93,17,4,17,0.00
2013-1-8,42,35,16,34,28,12,85,76,63,30.36,30.12,38,10,42,0.13
2013-1-9,40,32,29,34,26,23,82,77,65,30.37,30.16,12,2,15,0.00
2013-1-12,42,40,39,40,35,31,92,82,70,30.15,30.07,10,3,12,0.00
2013-1-13,46,43,41,45,42,40,99,98,92,30.11,29.90,23,7,25,0.00
2013-1-14,49,44,36,49,41,26,100,91,66,30.12,29.80,25,9,32,0.00
2013-1-15,36,32,27,26,22,18,74,65,51,30.27,30.12,14,3,16,0.00
2013-1-16,36,32,27,35,27,16,98,85,58,30.25,29.72,21,4,22,0.31
2013-1-17,39,30,12,39,22,-5,98,73,37,30.08,29.67,30,9,31,0.17
2013-1-18,18,10,2,4,-4,-12,68,54,37,30.34,30.06,22,7,24,0.00
2013-1-19,37,29,18,33,24,1,98,83,48,30.33,29.89,36,5,39,0.03
2013-1-20,46,40,24,42,32,6,96,76,44,29.89,29.38,40,12,42,0.02
2013-1-21,24,17,12,10,1,-3,76,48,37,29.98,29.71,31,7,34,0.00
2013-1-22,16,10,7,12,-1,-6,88,60,43,29.90,29.73,25,6,26,0.00
2013-1-23,8,2,-3,-5,-36,-100,62,50,38,29.97,29.87,28,11,30,0.00
2013-1-24,9,2,-4,-7,-43,-100,68,54,37,29.96,29.77,34,11,34,0.00
2013-1-25,19,10,1,2,-2,-9,70,58,45,30.07,29.95,25,8,32,0.00
2013-1-26,18,11,5,0,-2,-4,66,55,37,30.04,29.88,18,5,21,0.00
2013-1-27,22,14,7,6,2,-3,68,58,47,30.30,29.99,28,8,28,0.00
2013-1-28,24,17,9,10,1,-4,76,49,30,30.33,30.05,13,3,14,0.00
2013-1-29,36,28,18,28,16,5,81,61,39,30.21,30.04,11,2,11,0.00
2013-1-30,49,42,34,49,41,28,100,96,79,30.16,29.44,40,14,40,0.15
2013-1-31,52,45,32,52,41,17,100,87,53,29.44,28.80,53,19,58,0.39
2013-2-1,32,24,12,20,8,1,62,51,41,29.93,29.31,36,10,40,0.00
2013-2-2,24,16,8,19,6,-1,93,65,42,30.16,29.92,19,4,21,0.00
2013-2-3,24,21,19,22,19,16,94,90,87,30.04,29.59,20,4,20,0.00
2013-2-4,26,20,14,17,9,-7,89,64,36,29.75,29.48,31,11,33,0.00
2013-2-5,21,14,8,5,-3,-7,65,45,32,30.00,29.74,28,6,31,0.00
2013-2-6,33,23,11,30,16,3,96,78,53,30.16,29.87,18,5,20,0.06
2013-2-7,16,8,3,4,-7,-12,66,50,32,30.58,30.16,24,5,24,0.00
2013-2-8,19,11,2,16,6,-9,92,79,53,30.58,29.86,24,6,29,0.00
2013-2-9,17,14,10,14,12,8,100,90,84,29.93,29.52,41,12,44,0.00
2013-2-10,32,22,13,12,9,5,85,59,40,30.30,29.93,24,6,24,0.00
2013-2-11,43,32,19,43,24,0,99,76,34,30.30,29.50,23,6,24,0.40
2013-2-12,40,37,32,40,34,30,99,89,78,29.67,29.42,23,7,24,0.04
2013-2-13,43,35,31,31,28,23,89,75,51,29.74,29.65,20,4,20,0.00
2013-2-14,39,33,29,26,20,17,80,60,42,29.96,29.66,14,3,18,0.00
2013-2-15,42,40,30,38,36,18,94,86,62,29.98,29.90,29,10,35,0.00
2013-2-16,43,36,28,40,34,27,97,93,78,29.90,29.67,17,3,18,0.03
2013-2-17,28,23,18,27,21,14,96,93,82,29.67,28.84,36,11,40,0.01
2013-2-18,28,21,16,14,8,4,82,56,44,29.80,29.13,42,15,44,0.00
2013-2-19,41,31,19,38,18,4,96,61,34,30.03,29.71,30,7,31,0.03
2013-2-20,43,37,29,43,32,20,100,82,65,29.72,29.35,33,8,39,0.72
2013-2-21,33,29,24,30,21,16,95,73,63,30.01,29.50,24,7,25,0.00
2013-2-22,38,31,25,27,22,19,85,68,48,30.33,30.01,17,4,20,0.00
2013-2-23,31,29,26,26,24,22,91,84,75,30.33,30.05,19,4,19,0.00
2013-2-24,32,30,27,28,26,22,95,85,80,30.05,29.75,20,6,20,0.00
2013-2-25,37,28,20,24,18,10,83,66,36,30.19,29.81,15,3,19,0.01
2013-2-26,41,34,27,29,18,6,86,54,32,30.32,30.19,15,3,15,0.00
2013-2-27,39,34,29,32,29,24,97,81,65,30.27,29.75,29,7,31,0.00
2013-2-28,38,35,32,38,35,32,99,99,97,29.76,29.47,27,7,34,1.15
2013-3-1,33,31,29,33,31,29,99,98,98,29.56,29.45,18,4,20,0.07
2013-3-2,37,33,30,36,32,28,98,97,94,29.54,29.49,14,4,16,0.12
2013-3-3,40,36,33,38,35,32,99,96,90,29.53,29.41,9,2,10,0.03
2013-3-4,34,33,32,34,32,31,99,98,96,29.58,29.36,13,4,19,0.09
2013-3-5,41,35,33,37,34,32,99,95,83,30.10,29.58,15,5,20,0.15
2013-3-6,36,33,31,33,29,26,97,86,76,30.25,30.10,24,6,25,0.01
2013-3-7,37,34,31,28,26,24,81,75,68,30.21,30.03,29,9,31,0.00
2013-3-8,46,35,29,26,25,21,82,67,39,30.15,29.99,32,8,32,0.00
2013-3-9,41,32,28,28,25,23,89,75,54,30.36,30.14,20,5,25,0.00
2013-3-10,37,31,28,30,26,24,89,82,69,30.40,30.27,11,3,15,0.00
2013-3-11,40,37,33,38,35,30,97,90,85,30.29,30.16,23,8,24,0.00
2013-3-12,46,42,38,44,41,38,99,95,88,30.17,29.85,27,8,27,0.14
2013-3-13,46,43,35,46,43,32,100,99,90,29.85,29.55,28,7,31,1.67
2013-3-14,41,34,28,32,29,24,95,82,58,29.65,29.56,22,5,24,0.01
2013-3-15,33,27,20,24,14,10,92,61,40,29.66,29.54,21,7,24,0.00
2013-3-16,34,28,21,15,12,9,68,51,38,29.83,29.56,18,4,21,0.00
2013-3-17,30,23,16,12,5,-4,71,47,27,30.22,29.83,31,7,32,0.00
2013-3-18,32,22,12,10,1,-4,59,40,25,30.37,30.22,21,5,22,0.00
2013-3-19,29,26,24,26,19,3,97,77,35,30.29,29.58,29,9,32,0.00
2013-3-20,32,26,18,29,23,17,97,89,72,29.65,29.45,27,9,30,0.00
2013-3-21,37,32,28,28,24,20,87,74,56,29.74,29.55,19,5,21,0.00
2013-3-22,40,32,22,27,20,15,88,64,37,29.55,29.47,23,6,25,0.00
2013-3-23,40,33,26,27,22,18,76,66,47,29.52,29.34,31,11,32,0.00
2013-3-24,45,37,30,27,25,22,82,64,45,29.71,29.47,18,5,22,0.00
2013-3-25,42,36,30,33,30,25,92,78,61,29.72,29.53,18,3,22,0.00
2013-3-26,47,37,28,32,27,23,81,68,42,29.61,29.45,21,6,21,0.00
2013-3-27,39,36,33,38,34,29,97,93,78,29.78,29.59,14,4,18,0.22
2013-3-28,49,40,34,35,32,28,95,73,48,29.88,29.77,12,3,14,0.00
2013-3-29,53,44,36,38,34,31,89,69,49,29.92,29.84,14,4,17,0.00
2013-3-30,49,41,34,36,29,17,81,63,31,30.01,29.91,15,3,17,0.00
2013-3-31,48,40,33,38,24,15,94,55,31,30.08,29.89,21,4,22,0.00
2013-4-1,45,40,34,44,39,32,100,96,89,29.89,29.42,31,8,31,0.89
2013-4-2,36,31,27,32,17,10,93,57,36,29.73,29.55,32,11,32,0.00
2013-4-3,39,32,27,19,16,11,70,52,40,29.88,29.69,32,13,36,0.00
2013-4-4,47,36,29,35,19,6,87,53,21,30.10,29.87,31,12,36,0.00
2013-4-5,43,40,36,38,35,28,92,83,61,29.93,29.61,28,10,31,0.00
2013-4-6,38,32,28,28,13,1,71,47,22,30.30,29.66,29,9,33,0.00
2013-4-7,40,34,27,37,22,6,90,63,38,30.32,29.97,31,8,32,0.00
2013-4-8,57,47,40,41,38,34,95,72,48,30.11,29.84,32,7,32,0.00
2013-4-9,41,39,36,39,37,33,98,93,76,30.12,29.88,18,4,21,0.24
2013-4-10,53,42,37,46,41,37,99,95,70,29.95,29.84,14,4,15,0.02
2013-4-11,48,41,33,42,22,10,97,51,26,30.14,29.81,20,5,22,0.00
2013-4-12,38,33,29,32,24,14,96,72,46,30.23,29.90,25,5,25,0.14
2013-4-13,40,36,33,38,35,32,98,95,89,29.90,29.71,22,4,23,0.31
2013-4-14,46,39,36,43,38,35,98,96,84,30.10,29.88,12,2,16,0.24
2013-4-15,45,39,35,40,37,35,99,92,79,30.40,30.10,14,3,14,0.01
2013-4-16,44,40,35,42,39,35,98,96,88,30.40,29.90,30,10,36,0.19
2013-4-17,58,49,41,46,33,17,98,60,32,30.31,29.88,36,8,41,0.00
2013-4-18,45,40,34,38,28,16,91,65,38,30.45,30.16,21,4,27,0.00
2013-4-19,51,46,42,51,45,37,100,96,80,30.16,29.69,31,12,34,0.00
2013-4-20,51,47,43,50,45,32,100,95,67,30.06,29.58,34,10,35,0.22
2013-4-21,50,42,34,32,24,16,76,51,28,30.65,30.06,18,6,21,0.00
2013-4-22,46,38,29,36,28,18,88,68,48,30.80,30.65,18,3,21,0.00
2013-4-23,42,39,34,40,34,28,98,85,73,30.67,30.19,16,5,19,0.22
2013-4-24,49,44,41,48,44,40,99,99,98,30.19,29.74,19,6,22,1.08
2013-4-25,60,48,42,54,43,32,100,84,40,30.24,29.80,32,8,34,0.11
2013-4-26,53,45,37,38,34,30,86,66,48,30.40,30.23,19,4,20,0.00
2013-4-27,53,44,33,37,33,27,93,66,42,30.40,30.26,17,4,18,0.00
2013-4-28,55,47,42,41,36,29,87,68,41,30.33,30.23,15,4,15,0.00
2013-4-29,60,50,41,43,37,31,89,62,39,30.28,30.21,17,4,18,0.00
2013-4-30,61,52,43,45,37,28,89,58,34,30.34,30.24,15,3,19,0.00
2013-5-1,58,49,43,45,39,30,94,70,41,30.44,30.34,18,4,20,0.00
2013-5-2,54,48,43,44,40,32,89,75,59,30.50,30.39,23,5,23,0.00
2013-5-3,57,47,38,44,40,36,92,77,58,30.51,30.36,18,4,19,0.00
2013-5-4,52,44,36,40,37,34,95,78,56,30.38,30.30,18,4,21,0.00
2013-5-5,53,46,38,42,39,36,93,78,58,30.30,30.22,26,7,27,0.00
2013-5-6,53,45,40,46,42,39,99,90,66,30.26,30.16,19,7,21,0.00
2013-5-7,55,47,41,50,45,41,99,94,78,30.16,30.09,21,8,23,0.00
2013-5-8,64,52,44,57,50,44,100,93,73,30.26,30.15,10,3,12,0.00
2013-5-9,54,50,47,54,49,47,100,99,97,30.16,29.91,14,4,15,0.33
2013-5-10,61,51,46,57,50,46,100,98,83,29.96,29.87,14,3,15,0.01
2013-5-11,53,48,44,53,48,44,100,100,99,29.95,29.71,31,9,31,0.25
2013-5-12,53,50,47,53,50,47,100,100,100,29.72,29.52,27,6,27,0.19
2013-5-13,50,46,43,47,41,37,100,84,63,29.96,29.64,33,9,36,0.04
2013-5-14,53,46,41,40,37,33,88,70,47,29.95,29.86,11,3,12,0.00
2013-5-15,57,47,39,45,38,32,98,73,43,29.96,29.71,29,8,31,0.21
2013-5-16,63,53,46,54,49,45,99,88,63,29.72,29.53,23,5,27,0.07
2013-5-17,58,51,47,46,41,37,88,69,49,30.15,29.72,19,5,20,0.00
2013-5-18,51,46,40,41,39,36,92,77,61,30.34,30.15,16,4,17,0.00
2013-5-19,53,47,41,47,43,39,97,88,68,30.37,30.25,19,4,19,0.00
2013-5-20,50,48,46,50,48,46,100,99,97,30.25,29.92,19,4,23,0.72
2013-5-21,48,47,46,47,46,46,100,99,99,30.06,29.98,11,2,13,0.02
2013-5-22,49,47,46,48,47,45,100,100,99,30.03,29.92,20,6,22,0.55
2013-5-23,54,50,45,54,50,45,100,100,100,29.95,29.82,26,6,26,0.01
2013-5-24,56,53,50,56,53,50,100,100,100,29.84,29.67,41,10,47,1.75
2013-5-25,50,48,46,50,48,46,100,100,100,29.78,29.68,23,6,23,0.74
2013-5-26,49,46,44,47,46,43,100,97,88,29.86,29.62,19,5,24,0.15
2013-5-27,61,50,42,44,40,37,97,71,45,30.13,29.86,20,5,25,0.00
2013-5-28,64,54,47,50,42,37,90,65,43,30.22,30.12,21,5,23,0.00
2013-5-29,51,48,47,50,48,46,100,98,90,30.22,29.98,18,5,19,0.58
2013-5-30,78,61,48,66,57,48,100,87,64,29.99,29.92,15,3,18,0.03
2013-5-31,78,71,65,64,61,59,84,71,58,30.00,29.84,19,5,20,0.00
2013-6-1,80,68,56,65,60,54,92,76,56,29.88,29.78,23,6,23,0.00
2013-6-2,68,58,53,62,56,52,98,91,77,29.79,29.72,29,9,29,0.00
2013-6-3,61,54,51,61,54,51,100,99,98,29.81,29.69,24,7,27,0.04
2013-6-4,65,58,51,56,47,40,100,69,43,29.95,29.71,21,5,26,0.01
2013-6-5,64,55,48,48,44,37,86,66,38,30.11,29.94,23,6,23,0.00
2013-6-6,66,57,51,52,45,33,98,69,34,30.20,30.11,14,3,15,0.00
2013-6-7,57,53,50,51,49,46,98,86,73,30.16,29.98,13,3,15,0.19
2013-6-8,60,54,49,60,54,49,100,97,91,29.98,29.59,22,6,25,2.98
2013-6-9,59,54,49,53,51,49,98,91,77,30.08,29.92,21,4,25,0.00
2013-6-10,65,57,52,55,52,49,100,83,63,30.18,30.03,20,4,20,0.01
2013-6-11,54,51,50,52,51,49,100,98,86,30.03,29.51,20,5,22,1.32
2013-6-12,58,54,49,57,53,49,100,98,96,29.65,29.45,17,5,19,0.60
2013-6-13,67,57,51,56,52,50,99,86,64,29.77,29.64,15,3,16,0.02
2013-6-14,58,53,49,51,49,46,96,85,67,29.71,29.64,12,3,13,0.00
2013-6-15,74,61,48,50,46,41,96,62,32,29.82,29.68,19,5,25,0.00
2013-6-16,73,60,53,54,50,46,95,73,47,29.86,29.71,20,5,22,0.00
2013-6-17,74,60,54,60,56,53,99,89,59,29.80,29.68,26,5,29,0.10
2013-6-18,68,62,56,57,54,49,98,78,53,29.91,29.78,18,3,18,0.01
2013-6-19,74,65,54,54,46,38,84,55,29,30.08,29.87,14,3,17,0.00
2013-6-20,71,62,54,56,49,43,97,65,40,30.21,30.08,19,5,21,0.00
2013-6-21,71,62,54,59,54,50,96,78,59,30.19,30.12,20,5,20,0.00
2013-6-22,75,65,56,63,57,52,96,77,61,30.17,30.07,13,2,15,0.00
2013-6-23,66,59,54,61,57,53,98,94,85,30.11,29.92,19,4,21,0.02
2013-6-24,85,71,56,72,65,56,99,83,57,29.92,29.75,15,4,18,0.01
2013-6-25,82,72,64,67,64,60,96,77,54,29.79,29.64,22,5,27,0.06
2013-6-26,71,62,55,70,61,53,100,96,89,29.86,29.65,14,2,18,0.04
2013-6-27,55,52,51,54,52,50,100,98,93,29.90,29.83,15,5,16,0.00
2013-6-28,60,56,54,60,56,54,100,100,100,29.88,29.60,28,7,28,1.61
2013-6-29,63,58,56,62,58,56,100,100,100,29.72,29.58,23,6,25,0.03
2013-6-30,62,58,56,62,58,56,100,100,100,29.93,29.71,20,9,25,0.00
2013-7-1,73,62,56,71,61,56,100,99,84,30.09,29.92,15,3,18,0.07
2013-7-2,66,58,55,66,57,55,100,99,95,30.20,30.08,15,3,18,0.50
2013-7-3,69,60,55,63,59,55,100,95,81,30.18,30.08,17,3,17,0.00
2013-7-4,88,74,62,71,67,61,99,81,50,30.12,30.01,16,5,18,0.00
2013-7-5,88,76,65,73,69,64,98,79,53,30.04,29.95,20,6,20,0.00
2013-7-6,86,78,70,73,70,66,95,78,59,29.97,29.85,19,4,20,0.00
2013-7-7,86,77,68,69,65,62,83,69,48,29.89,29.82,14,6,18,0.00
2013-7-8,75,67,60,67,60,53,93,77,60,30.05,29.87,13,3,13,0.01
2013-7-9,64,60,57,61,58,54,99,93,70,30.12,30.04,12,3,13,0.06
2013-7-10,61,58,57,61,58,56,100,99,94,30.09,29.79,14,4,16,0.01
2013-7-11,77,68,60,73,66,60,100,95,80,29.92,29.74,19,3,24,0.04
2013-7-12,77,69,62,67,59,55,97,70,46,30.18,29.92,14,3,16,0.00
2013-7-13,77,68,59,64,59,56,93,73,58,30.29,30.17,17,4,18,0.00
2013-7-14,81,71,60,68,62,56,94,76,59,30.25,30.13,14,3,15,0.00
2013-7-15,91,78,68,70,66,61,89,68,38,30.13,29.99,12,3,13,0.00
2013-7-16,86,75,66,69,64,55,77,67,52,30.15,30.01,17,4,18,0.00
2013-7-17,71,66,63,65,61,55,98,85,69,30.18,29.87,23,8,25,0.18
2013-7-18,83,72,64,70,63,56,99,76,48,29.98,29.86,19,5,20,0.05
2013-7-19,73,66,62,69,65,62,100,96,85,29.96,29.59,20,7,25,0.15
2013-7-20,81,73,67,72,67,62,98,83,63,29.72,29.55,29,6,32,0.03
2013-7-21,69,65,60,63,56,52,85,74,62,30.01,29.71,20,5,20,0.00
2013-7-22,71,64,59,59,56,52,95,76,53,30.04,29.94,11,2,12,0.00
2013-7-23,64,60,57,64,60,56,100,99,94,29.95,29.51,15,4,18,2.16
2013-7-24,74,66,62,69,64,54,100,93,78,29.92,29.52,17,4,21,0.01
2013-7-25,71,62,55,60,55,51,97,79,59,30.12,29.91,18,4,18,0.08
2013-7-26,65,62,59,65,62,59,100,99,97,30.07,29.80,16,4,16,3.91
2013-7-27,75,65,57,67,62,57,100,89,72,30.04,29.78,18,6,19,0.06
2013-7-28,67,62,58,65,60,57,100,95,83,30.07,29.99,14,3,15,0.15
2013-7-29,70,63,59,65,61,59,100,96,81,30.06,29.96,11,2,13,0.02
2013-7-30,72,64,59,68,62,59,100,93,79,30.04,29.96,10,2,11,0.08
2013-7-31,76,66,58,62,58,56,91,76,53,30.06,30.00,26,5,28,0.00
2013-8-1,72,64,58,66,61,56,99,91,76,30.03,29.92,12,3,14,0.00
2013-8-2,63,61,59,63,61,58,100,100,98,29.92,29.76,20,4,20,0.89
2013-8-3,68,61,55,66,60,55,100,96,83,29.81,29.69,21,3,23,0.10
2013-8-4,72,64,58,64,59,56,97,85,67,29.75,29.69,21,4,22,0.01
2013-8-5,69,62,55,58,55,51,96,79,60,29.96,29.73,17,5,20,0.00
2013-8-6,70,63,53,56,52,47,82,69,56,30.13,29.96,24,6,24,0.00
2013-8-7,72,64,58,59,55,50,99,75,46,30.19,30.12,19,4,19,0.00
2013-8-8,62,60,58,62,60,57,100,98,94,30.14,30.04,16,5,19,0.25
2013-8-9,66,63,61,66,62,61,100,100,100,30.05,29.64,29,8,31,1.22
2013-8-10,78,69,60,72,60,49,100,77,44,29.92,29.65,23,5,23,0.00
2013-8-11,75,64,56,56,53,50,84,69,47,29.98,29.91,17,6,21,0.00
2013-8-12,74,64,58,60,57,54,96,78,55,29.95,29.88,21,5,21,0.00
2013-8-13,66,62,58,65,60,56,99,96,89,29.89,29.70,11,2,13,0.00
2013-8-14,68,61,58,64,59,51,100,93,68,29.76,29.57,22,4,25,0.01
2013-8-15,73,62,54,56,53,50,90,74,50,30.05,29.76,21,7,22,0.00
2013-8-16,72,63,56,60,57,54,98,83,58,30.16,30.04,17,4,20,0.00
2013-8-17,77,65,56,62,57,53,98,78,46,30.23,30.15,14,2,14,0.00
2013-8-18,73,63,57,60,57,53,97,80,56,30.24,30.00,15,4,18,0.00
2013-8-19,78,68,59,64,61,58,98,81,59,30.00,29.81,15,4,20,0.00
2013-8-20,79,71,65,68,63,60,89,78,63,30.04,29.89,18,3,19,0.00
2013-8-21,78,69,62,64,61,59,90,77,59,30.09,29.96,19,5,20,0.00
2013-8-22,78,67,60,67,62,58,99,86,64,29.96,29.72,20,6,20,0.00
2013-8-23,74,66,56,64,58,51,99,77,48,30.09,29.71,15,4,19,0.03
2013-8-24,76,65,52,52,48,43,84,58,33,30.26,30.09,15,2,15,0.00
2013-8-25,74,64,56,57,52,49,80,66,47,30.30,30.13,21,4,22,0.00
2013-8-26,66,61,58,62,58,50,97,90,72,30.13,29.83,18,5,21,0.03
2013-8-27,78,68,62,67,64,59,99,87,68,29.89,29.81,11,2,13,0.00
2013-8-28,71,62,57,65,60,57,100,94,80,29.98,29.87,12,2,12,0.01
2013-8-29,65,61,56,63,58,53,97,88,77,30.09,29.98,15,4,20,0.01
2013-8-30,70,60,51,60,55,50,98,87,65,29.98,29.76,18,4,20,0.00
2013-8-31,75,65,60,67,63,59,99,94,73,29.83,29.74,21,2,23,0.16
2013-9-1,76,66,60,71,65,59,100,96,81,29.95,29.74,14,2,14,0.04
2013-9-2,63,60,58,62,60,58,100,100,99,29.97,29.76,18,5,23,0.70
2013-9-3,71,63,60,70,63,60,100,100,96,29.77,29.70,16,4,18,0.18
2013-9-4,75,66,61,66,61,57,100,86,58,29.86,29.70,19,4,23,0.00
2013-9-5,63,58,50,58,52,41,98,82,49,30.08,29.83,11,2,13,0.44
2013-9-6,64,54,45,51,45,39,85,71,44,30.16,30.01,19,5,20,0.00
2013-9-7,64,58,54,57,55,50,95,87,71,30.02,29.75,21,7,21,0.00
2013-9-8,62,57,48,58,52,41,99,85,58,29.98,29.65,19,5,23,0.26
2013-9-9,62,53,44,54,45,40,92,77,50,30.15,29.98,27,8,27,0.00
2013-9-10,63,58,56,58,56,53,99,94,85,30.10,30.04,23,9,26,0.00
2013-9-11,69,61,57,67,60,56,100,98,89,30.04,29.88,17,5,18,0.00
2013-9-12,74,63,60,70,63,59,100,98,81,29.96,29.66,23,8,25,0.19
2013-9-13,65,60,58,65,60,58,100,100,100,29.67,29.56,20,3,21,0.26
2013-9-14,66,59,54,61,57,52,100,94,82,29.97,29.63,15,3,18,0.01
2013-9-15,62,56,50,54,52,49,96,87,65,30.08,29.97,24,5,24,0.00
2013-9-16,63,54,42,56,51,35,99,89,74,30.19,29.93,16,4,21,0.00
2013-9-17,63,51,38,47,41,34,89,69,49,30.31,30.19,15,3,16,0.00
2013-9-18,66,57,48,53,49,44,88,75,49,30.25,30.04,18,5,20,0.00
2013-9-19,73,61,50,56,50,46,91,70,49,30.07,29.97,15,3,15,0.00
2013-9-20,73,61,54,57,53,48,98,76,51,30.07,29.98,13,3,17,0.00
2013-9-21,62,56,54,58,56,53,100,97,85,30.04,29.82,19,6,22,0.01
2013-9-22,62,59,53,62,58,53,100,100,96,29.82,29.58,28,9,34,0.59
2013-9-23,56,51,46,53,46,43,99,83,69,29.83,29.64,21,6,23,0.00
2013-9-24,50,49,46,47,45,42,95,86,78,29.82,29.74,16,6,19,0.05
2013-9-25,57,51,47,49,47,45,93,86,72,29.90,29.76,12,4,14,0.00
2013-9-26,59,53,47,51,49,46,94,85,71,30.06,29.90,16,4,18,0.00
2013-9-27,70,59,51,55,52,49,95,78,56,30.21,30.06,15,3,16,0.00
2013-9-28,66,57,50,55,51,48,95,82,64,30.32,30.21,10,3,12,0.00
2013-9-29,63,55,50,54,50,47,98,85,58,30.24,30.09,14,3,17,0.00
2013-9-30,61,53,48,54,51,47,99,94,77,30.11,29.93,9,2,13,0.01
2013-10-1,68,58,52,60,53,48,99,85,61,29.93,29.76,15,4,16,0.00
2013-10-2,73,62,53,60,56,51,99,83,63,29.81,29.67,18,4,18,0.01
2013-10-3,72,62,55,51,48,42,75,60,40,30.01,29.81,25,5,26,0.00
2013-10-4,69,58,53,51,46,40,77,63,43,30.06,29.97,13,2,13,0.00
2013-10-5,60,52,46,49,44,39,89,73,58,30.13,30.05,13,2,13,0.00
2013-10-6,56,49,41,47,39,35,93,70,47,30.27,30.12,12,3,17,0.03
2013-10-7,60,55,46,60,54,44,99,96,91,30.24,29.81,31,8,32,0.29
2013-10-8,60,55,46,60,47,38,100,78,52,30.35,29.78,35,6,38,0.53
2013-10-9,58,49,42,45,40,36,85,73,50,30.45,30.33,15,3,17,0.00
2013-10-10,58,51,46,52,47,42,96,86,72,30.33,30.17,18,4,18,0.00
2013-10-11,71,56,48,53,48,44,96,77,50,30.18,30.08,13,2,15,0.00
2013-10-12,55,51,45,52,46,39,94,83,57,30.40,30.18,18,4,20,0.00
2013-10-13,55,48,42,45,43,40,96,83,60,30.45,30.35,13,4,15,0.00
2013-10-14,55,50,45,49,46,43,94,86,76,30.35,30.22,23,6,24,0.00
2013-10-15,63,55,51,54,51,48,96,87,73,30.25,30.19,11,2,11,0.00
2013-10-16,55,53,51,54,53,50,99,98,93,30.22,29.85,16,4,16,0.61
2013-10-17,56,53,50,55,53,49,100,99,99,29.86,29.73,15,3,17,0.01
2013-10-18,61,55,49,59,52,46,100,93,76,29.77,29.53,27,6,27,0.21
2013-10-19,61,53,48,50,46,42,92,77,51,29.88,29.76,20,6,22,0.00
2013-10-20,61,54,47,56,46,34,99,75,40,29.87,29.64,22,7,25,0.09
2013-10-21,58,50,44,49,39,33,92,69,42,30.01,29.86,20,8,22,0.00
2013-10-22,57,54,46,54,51,40,98,91,79,29.99,29.65,23,7,26,0.00
2013-10-23,51,46,40,41,38,34,91,76,55,29.73,29.53,14,2,16,0.00
2013-10-24,49,44,39,39,32,27,81,64,44,29.72,29.52,28,7,28,0.00
2013-10-25,50,43,37,35,33,29,80,67,52,30.01,29.72,21,6,24,0.00
2013-10-26,50,42,35,41,34,26,90,75,48,30.07,29.83,32,7,35,0.04
2013-10-27,52,45,40,44,40,32,100,82,64,29.91,29.74,19,4,21,0.08
2013-10-28,52,43,35,41,34,28,81,70,56,30.27,29.91,29,8,31,0.00
2013-10-29,45,37,30,29,25,19,87,63,36,30.40,30.27,12,2,13,0.00
2013-10-30,46,40,34,33,28,20,82,64,38,30.31,30.11,13,3,15,0.00
2013-10-31,55,45,36,54,39,26,99,80,63,30.23,29.78,37,6,37,0.27
2013-11-1,59,56,54,58,56,53,100,97,84,29.78,29.30,46,18,52,0.41
2013-11-2,59,54,48,53,48,44,95,84,66,29.70,29.47,21,5,22,0.00
2013-11-3,48,36,30,44,25,18,92,67,42,30.32,29.69,20,5,20,0.05
2013-11-4,40,32,26,22,20,18,71,60,44,30.67,30.32,16,4,18,0.00
2013-11-5,46,38,28,37,30,21,83,72,63,30.69,30.48,22,5,23,0.00
2013-11-6,52,48,42,49,43,37,94,85,77,30.48,29.95,37,10,37,0.00
2013-11-7,55,50,38,54,49,36,99,96,92,29.97,29.57,31,11,34,0.19
2013-11-8,43,37,34,36,29,26,93,74,53,29.85,29.66,22,7,27,0.00
2013-11-9,41,36,34,27,24,21,72,61,48,30.08,29.84,24,7,25,0.00
2013-11-10,46,40,33,45,37,21,100,89,59,30.05,29.64,20,3,23,0.12
2013-11-11,46,39,35,40,34,30,98,83,67,29.93,29.65,22,5,24,0.01
2013-11-12,46,34,27,40,25,16,89,69,56,29.99,29.77,32,8,32,0.03
2013-11-13,34,28,24,20,16,12,76,60,41,30.11,29.98,22,6,22,0.00
2013-11-14,44,38,28,35,29,18,81,69,52,30.04,29.90,16,5,19,0.00
2013-11-15,51,44,38,41,36,33,90,74,51,30.15,30.03,17,5,19,0.00
2013-11-16,48,43,38,43,37,30,97,82,62,30.31,30.15,8,3,11,0.00
2013-11-17,49,43,34,48,42,34,99,96,89,30.34,29.99,17,4,18,0.06
2013-11-18,56,52,48,55,50,44,99,95,82,29.99,29.44,40,10,40,0.78
2013-11-19,48,38,32,44,28,20,87,67,50,30.05,29.50,26,8,34,0.00
2013-11-20,37,31,28,21,10,1,66,43,23,30.54,30.05,24,8,26,0.00
2013-11-21,48,36,25,31,20,9,77,54,26,30.56,30.30,14,4,14,0.00
2013-11-22,41,36,32,32,28,20,90,72,45,30.30,29.73,14,2,20,0.00
2013-11-23,39,35,29,38,25,16,97,69,45,29.73,29.55,34,10,35,0.04
2013-11-24,29,22,20,19,10,7,70,59,50,29.80,29.52,35,12,37,0.00
2013-11-25,28,22,16,13,5,0,62,49,29,30.27,29.80,30,8,31,0.00
2013-11-26,39,34,26,35,28,12,96,80,53,30.29,30.17,28,5,28,0.02
2013-11-27,55,50,36,55,49,34,99,98,94,30.18,29.07,45,13,53,2.36
2013-11-28,44,30,20,43,24,9,98,77,51,30.29,29.15,32,11,32,0.01
2013-11-29,25,20,17,13,10,6,76,65,47,30.66,30.29,16,6,19,0.00
2013-11-30,35,22,14,26,14,9,86,70,48,30.76,30.41,25,4,28,0.00
2013-12-1,42,38,33,39,34,26,98,89,68,30.41,30.07,27,7,28,0.23
2013-12-2,43,40,33,42,39,33,99,97,94,30.08,29.89,18,4,25,0.47
2013-12-3,40,37,36,39,37,35,99,99,95,29.89,29.71,19,4,19,0.02
2013-12-4,42,35,30,35,30,27,95,83,67,30.17,29.72,21,6,23,0.00
2013-12-5,49,39,28,49,37,26,99,93,85,30.27,29.88,29,5,29,0.06
2013-12-6,49,43,36,49,42,32,100,97,84,30.03,29.80,21,5,24,0.07
2013-12-7,36,31,24,33,21,12,97,68,47,30.30,29.99,21,6,23,0.00
2013-12-8,25,22,20,13,9,6,70,57,45,30.56,30.29,25,7,26,0.00
2013-12-9,36,26,20,35,20,4,98,80,49,30.54,29.75,24,6,24,0.04
2013-12-10,34,31,29,33,31,29,99,98,95,29.81,29.74,13,3,13,0.02